Regional Weather Roundup
Issued by NWS Newport/Morehead, NC

Current Version | Previous Version | Graphics & Text | Print | Product List | Glossary Off
Versions: 1 2 3 4 5 6 7 8 9 10 11 12 13 14 15 16 17 18 19 20 21 22 23 24 25 26 27 28 29 30 31 32 33 34 35 36 37 38 39 40 41 42 43 44 45 46 47 48 49 50

000
ASUS42 KMHX 200613
RWRMHX
WEATHER ROUNDUP FOR EASTERN NORTH CAROLINA
NATIONAL WEATHER SERVICE NEWPORT/MOREHEAD CITY NC
200 AM EDT FRI OCT 20 2017

NOTE: "FAIR" INDICATES FEW OR NO CLOUDS BELOW 12,000 FEET
WITH NO SIGNIFICANT WEATHER AND/OR OBSTRUCTIONS TO VISIBILITY

NCZ015>017-031-032-045>047-102-103-200700-
NORTH COAST

CITY           SKY/WX    TMP DP  RH WIND       PRES   REMARKS
EDENTON        FAIR      55  54  95 CALM      30.21S
ELIZABETH CITY FOG       54  54 100 SW5       30.20S VSB 1/4
KITTY HAWK     FAIR     N/A N/A N/A CALM      30.19R
MANTEO         FOG      N/A N/A N/A CALM      30.20S VSB 3/4

$$

NCZ045>047-081-094-103-104-200700-
CENTRAL COAST

CITY           SKY/WX    TMP DP  RH WIND       PRES   REMARKS
FRISCO         FAIR      57  57 100 N3        30.20R

$$

NCZ095-097-098-100-101-200700-
SOUTHERN COAST

CITY           SKY/WX    TMP DP  RH WIND       PRES   REMARKS
BEAUFORT       FAIR      58  58 100 N3        30.20S
CEDAR ISLAND   NOT AVBL
JACKSONVILLE   FAIR      57  57 100 CALM      30.20S
PINEY ISLAND     N/A    N/A N/A N/A W6        30.20S
WILMINGTON     FAIR      58  56  93 CALM      30.20F


$$

NCZ011>013-027>030-043-044-078>080-089-090>093-098-200700-
COASTAL PLAIN

CITY           SKY/WX    TMP DP  RH WIND       PRES   REMARKS
AHOSKIE        FAIR      47  47 100 CALM      30.21R
CLINTON        FAIR      52  52 100 CALM      30.23R
ELIZABETHTOWN  NOT AVBL
GOLDSBORO      FAIR      52  49  92 CALM      30.19F FOG
GREENVILLE     FOG       52  52 100 CALM      30.21F VSB 1/2
HAVELOCK       FAIR      56  56 100 CALM      30.21S
KENANSVILLE    FAIR      50  48  93 CALM      30.22S FOG
KINSTON        FAIR      50  49  97 CALM      30.22S
NEW BERN       FAIR      54  54 100 CALM      30.22S
RICHLANDS      FAIR      51  50  96 CALM      30.22R
ROCKY MOUNT    FAIR      50  50 100 CALM      30.21S FOG
WASHINGTON     FAIR      54  53  97 CALM      30.21S
WHITEVILLE     FAIR      55  55  97 CALM      30.22R

$$

AMZ130-135-150-152-154-156-158-170-250-252-270-ANZ085-086-088-633-658-670-200700-
MARINE OBSERVATIONS

STATION/POSITION TIME  TEMP    WIND        PRES    WAVE   SWELL
                       AIR SEA DIR/SP/G            HT/PER HT/PER
                 (UTC) (F)     (DEG/KT/KT) (MB)    (FT/S) (FT/S)
CHESAPEAKE LIGHT NOT AVBL
64 E VA BEACH    0550   67 68  230/  4/  4 1022.7    3/ 9   3/ 9
DUCK             0548   65 70  250/  5/  6 1022.1
2 E DUCK         0600      69                N/A     2/ 9
OREGON INLET     0542   65 69  290/  3/  4 1022.4
13E OREGON INLT  0548      71                N/A     3/ 9   3/ 9
HATTERAS CG      0548   67 70   CALM  /  3 1022.3
DIAMOND BUOY     0550   74 81  340/  6/  8 1022.1    4/10   3/10
CAPE LOOKOUT     0600   68     360/  2/  3 1022.2
BEAUFORT LAB     0548   64 71  360/  4/  4 1022.8
30 SE NEW RVR IN 0508   74      10/  2/  2 1022.3
30 SE NEW RVR IN NOT AVBL
27 SE WRIGHTSVLE 0508   74 76   30/  4/  8 1022.6
5 SE WRIGHTSVLE  0508   70 74  350/ 10/ 14 1022.6
225 S CAPE HAT   0550   77 80   50/ 14/ 16 1019.9    6/ 9   5/ 9
41 SE CHARLESTON 0550   76 79   40/ 12/ 16 1021.9    5/ 9   3/ 9

$$




USA.gov is the U.S. government's official web portal to all federal, state and local government web resources and services.